Content
SEND FEEDBACK

Daily
Averages
Monthly
Summary
United Kingdom

ST ALBANS, ENGLAND


Home > Europe > United Kingdom > England
Elevation: 420 feet     Latitude: 51 48N     Longitude: 000 21W

WEATHER
 
SELECT A DAY
Number of Records: 291,154;   Date Range: 7/1/96 - 9/19/14
 
SHARE

PRINT THIS DATA

[ ← Previous Day ]
WEATHER ALMANAC - AUGUST 7, 2014
[ Next Day → ]
[ °C ]   °F
Weather ElementAverageHighLow
Temperature66.3 °F75.2 °F (2:20 pm)59 °F (4:20 am)
Dewpoint55.2 °F60.8 °F (9:50 pm)48.2 °F (6:20 pm)
Humidity70.9 %94 % (12:50 am)41 % (2:20 pm)
Barometer29.95 in29.98 in (9:20 am)29.89 in (1:20 am)
Wind Speed6.7 mph11.5 mph (9:50 pm)
Weather ElementAverage
Visibility6.2 mi
Wind DirectionSSW (208.5 °)

Weather ElementTotal
Precipitation---
Cooling Degree Days2.1 (Base 65)
Growing Degree Days17.1 (Base 50)
Averaged from 47 records on August 7, 2014
WEATHER CONDITIONS BREAKOUT
WIND DIRECTION BREAKOUT
WEATHER BY HOUR - AUGUST 7, 2014
[ °C ]   °F
Local TimeTemperatureDewpointHumidityBarometerVisibilityWind DirectionWind SpeedGust SpeedPrecipitationEventsConditions
12:50 AM60.8 °F59.0 °F94 %29.92 inWest (260°)10.4 mphClear
1:20 AM60.8 °F57.2 °F88 %29.89 inWest (270°)9.2 mphClear
1:50 AM60.8 °F57.2 °F88 %29.89 in6.2 miWest (280°)9.2 mphMostly Cloudy
2:20 AM60.8 °F57.2 °F88 %29.89 in6.2 miWest (280°)10.4 mphMostly Cloudy
2:50 AM60.8 °F57.2 °F88 %29.92 in6.2 miWest (270°)6.9 mphPartly Cloudy
3:20 AM60.8 °F57.2 °F88 %29.92 in6.2 miWest (270°)8.1 mphMostly Cloudy
3:50 AM60.8 °F57.2 °F88 %29.92 in6.2 miWest (280°)8.1 mphMostly Cloudy
4:20 AM59.0 °F57.2 °F94 %29.92 in6.2 miWest (280°)6.9 mphScattered Clouds
4:50 AM59.0 °F57.2 °F94 %29.92 in6.2 miWest (280°)8.1 mphPartly Cloudy
5:20 AM59.0 °F57.2 °F94 %29.92 inWNW (290°)8.1 mphClear
5:50 AM59.0 °F57.2 °F94 %29.92 in5.6 miWNW (290°)9.2 mph
6:20 AM59.0 °F57.2 °F94 %29.92 in6.2 miWNW (300°)8.1 mph
6:50 AM59.0 °F57.2 °F94 %29.95 in5.6 miWNW (300°)9.2 mph
7:20 AM60.8 °F57.2 °F88 %29.95 inNW (310°)8.1 mphClear
7:50 AM60.8 °F57.2 °F88 %29.95 inNW (320°)6.9 mphClear
8:20 AM62.6 °F59.0 °F88 %29.95 in6.2 miNW (320°)5.8 mphScattered Clouds
8:50 AM62.6 °F59.0 °F88 %29.95 in6.2 miNW (320°)5.8 mphScattered Clouds
9:20 AM64.4 °F59.0 °F83 %29.98 in6.2 miNorth (350°)5.8 mphPartly Cloudy
9:50 AM66.2 °F59.0 °F78 %29.98 in6.2 miNNW (340°)4.6 mphScattered Clouds
10:20 AM64.4 °F59.0 °F83 %29.98 in6.2 miNNW (330°)5.8 mphScattered Clouds
10:50 AM68.0 °F57.2 °F68 %29.98 in6.2 miVariable2.3 mphScattered Clouds
11:20 AM68.0 °F57.2 °F68 %29.98 in6.2 miNNW (330°)5.8 mphPartly Cloudy
11:50 AM71.6 °F53.6 °F53 %29.98 in6.2 miVariable4.6 mphScattered Clouds
12:20 PM69.8 °F55.4 °F60 %29.98 in6.2 miNW (310°)8.1 mphScattered Clouds
12:50 PM73.4 °F55.4 °F53 %29.98 in6.2 miNW (320°)6.9 mphScattered Clouds
1:20 PM73.4 °F53.6 °F50 %29.98 in6.2 miVariable5.8 mphScattered Clouds
1:50 PM71.6 °F53.6 °F53 %29.98 in6.2 miVariable4.6 mphScattered Clouds
2:20 PM75.2 °F50.0 °F41 %29.95 in6.2 miWNW (290°)4.6 mphScattered Clouds
2:50 PM75.2 °F51.8 °F44 %29.95 in6.2 miNNW (340°)6.9 mphScattered Clouds
3:20 PM73.4 °F50.0 °F44 %29.95 in6.2 miNNW (330°)5.8 mphScattered Clouds
3:50 PM73.4 °F50.0 °F44 %29.95 in6.2 miNNW (330°)6.9 mphScattered Clouds
4:20 PM73.4 °F50.0 °F44 %29.95 in6.2 miNNW (340°)4.6 mphScattered Clouds
4:50 PM73.4 °F50.0 °F44 %29.95 in6.2 miNNW (330°)4.6 mph
5:20 PM73.4 °F50.0 °F44 %29.95 inVariable2.3 mphClear
5:50 PM71.6 °F50.0 °F46 %29.95 inVariable3.5 mphClear
6:20 PM73.4 °F48.2 °F41 %29.95 inNorth (350°)4.6 mphClear
6:50 PM71.6 °F50.0 °F46 %29.95 inVariable3.5 mphClear
7:20 PM71.6 °F48.2 °F43 %29.95 inVariable2.3 mphClear
7:50 PM71.6 °F50.0 °F46 %29.95 inVariable3.5 mphClear
8:20 PM69.8 °F51.8 °F53 %29.95 inVariable2.3 mphClear
8:50 PM68.0 °F51.8 °F56 %29.95 inNE (50°)5.8 mphClear
9:20 PM68.0 °F51.8 °F56 %29.95 inVariable3.5 mphClear
9:50 PM64.4 °F60.8 °F88 %29.98 inESE (110°)11.5 mphClear
10:20 PM62.6 °F59.0 °F88 %29.98 inESE (110°)11.5 mphClear
10:50 PM62.6 °F59.0 °F88 %29.95 inESE (110°)10.4 mphClear
11:20 PM62.6 °F60.8 °F94 %29.95 in6.2 miEast (100°)11.5 mphMostly Cloudy
11:50 PM62.6 °F60.8 °F94 %29.95 in6.2 miESE (110°)10.4 mphOvercast
Hourly data recorded from EGGW, located miles away from St Albans, England







STORIES FROM OUR PARTNERS